Location: Caltech
(34.1382°N, 118.1253°W)
Time: 19:13:17
(UTC-07:00)

Gbstr 26 Del rocket - Visible Passes

Search period start: 22 August 2017 00:00
Search period end: 01 September 2017 00:00
Orbit: 494 x 1265 km, 51.8° (Epoch: 22 August)

Date Brightness Start Highest point End Pass type
(mag) Time Alt. Az. Time Alt. Az. Time Alt. Az.
23 Aug 7.0 05:52:58 10° SE 05:56:08 13° ESE 05:59:22 10° E visible
24 Aug 6.7 05:46:55 10° SSE 05:51:32 17° ESE 05:56:17 10° E visible
25 Aug 6.6 05:41:25 10° SSE 05:46:56 22° ESE 05:52:42 10° ENE visible
26 Aug 6.3 05:36:12 10° S 05:42:22 27° ESE 05:48:51 10° ENE visible
27 Aug 6.0 05:31:11 10° S 05:37:49 33° ESE 05:44:50 10° ENE visible
28 Aug 5.6 05:26:19 10° SSW 05:33:16 41° SE 05:40:44 10° ENE visible
29 Aug 5.3 05:21:35 10° SSW 05:28:46 50° SE 05:36:32 10° ENE visible
30 Aug 6.6 03:36:03 10° SE 03:38:11 11° ESE 03:40:22 10° E visible
30 Aug 4.9 05:16:57 10° SSW 05:24:17 61° SE 05:32:17 10° NE visible
31 Aug 6.4 03:30:36 12° SE 03:33:32 15° ESE 03:37:40 10° E visible
31 Aug 4.7 05:13:13 14° SW 05:19:51 73° SE 05:27:59 10° NE visible
